SCP
3 3 3 3 2 2 2 2 2 2 1 1 1 1 1 1 1 1 1 1 2 2 2 2 1 1 1 1 1 1 1 1 1 1 1 1 1 1 1 1 1 1 1
4 4 3 3 3 2 3 2 2 2 1 1 1 1 1 1 1 1 1 1 1 2 2 1 1 1 1 1 1 1 1 1 1 1 1 1 1 1 1 1 1 1 1
5 4 3 3 3 3 3 3 2 2 2 1 1 1 1 1 1 1 1 1 1 1 1 1 1 1 1 1 2 1 1 1 1 1 1 1 1 1 1 1 1 1 1
5 4 3 3 3 3 3 3 2 2 2 2 1 1 1 1 1 1 1 1 1 1 1 1 1 1 1 2 2 2 1 1 1 1 1 1 1 1 1 1 1 1 1
5 4 4 3 3 3 3 3 2 2 2 2 1 1 1 1 1 1 1 1 1 1 1 1 1 1 1 1 1 1 1 1 1 1 1 1 1 1 1 1 1 1 0
5 4 4 4 3 3 3 3 3 3 2 2 1 1 1 1 1 1 1 1 1 1 1 1 1 1 1 1 1 1 1 1 1 1 1 1 1 1 1 1 1 0 0
6 4 4 4 4 3 3 3 3 2 2 1 1 1 1 1 1 1 1 1 1 1 1 1 1 1 1 1 1 1 1 1 1 1 1 1 1 1 1 1 0 0 0
5 4 4 4 4 4 3 3 2 2 2 1 1 1 1 1 1 1 1 1 1 1 1 1 1 1 1 1 1 1 1 1 1 1 1 1 0 0 0 0 0 0 0
4 4 4 3 4 4 3 2 2 1 1 1 1 1 1 1 1 1 1 1 1 1 1 1 1 1 1 1 1 1 0 0 0 0 0 0 0 0 0 0 0 0 0
3 3 3 3 3 3 2 2 1 1 1 1 1 1 1 1 1 1 1 1 1 1 1 1 0 1 1 1 1 0 0 0 0 0 0 0 0 0 0 0 0 0 0
2 2 2 2 2 2 2 1 1 1 1 0 0 0 0 1 1 1 0 0 0 0 0 0 0 0 1 1 0 0 0 0 0 0 0 0 0 0 0 0 0 0 0
1 1 1 1 1 1 1 1 1 0 0 0 0 0 0 0 0 0 0 0 0 0 0 0 0 0 0 0 0 0 0 0 0 0 0 0 0 0 0 0 0 0 0
0 0 0 1 1 1 1 1 0 0 0 0 0 0 0 0 0 0 0 0 0 0 0 0 0 0 0 0 0 0 0 0 0 0 0 0 0 0 0 0 0 0 0
0 0 0 0 1 1 1 0 0 0 0 0 0 0 0 0 0 0 0 0 0 0 0 0 0 0 0 0 0 0 0 0 0 0 0 0 0 0 0 0 0 0 0
0 0 0 0 0 0 0 0 0 0 0 0 0 0 0 0 0 0 0 0 0 0 0 0 0 0 0 0 0 0 0 0 0 0 0 0 0 0 0 0 0 0 0
0 0 0 0 0 0 0 0 0 0 0 0 0 0 0 0 0 0 0 0 0 0 0 0 0 0 0 0 0 0 0 0 0 0 0 0 0 0 0 0 0 0 0
0 0 0 0 0 0 0 0 0 0 0 0 0 0 0 0 0 0 0 0 0 0 0 0 0 0 0 0 0 0 0 0 0 0 0 0 0 0 0 0 0 0 0
0 0 0 0 0 0 0 0 0 0 0 0 0 0 0 0 0 0 0 0 0 0 0 0 0 0 0 0 0 0 0 0 0 0 0 0 0 0 0 0 0 0 0
0 0 0 0 0 0 0 0 0 0 0 0 0 0 0 0 0 0 0 0 0 0 0 0 0 0 0 0 0 0 0 0 0 0 0 0 0 0 0 0 0 0 0
0 0 0 0 0 0 0 0 0 0 0 0 0 0 0 0 0 0 0 0 0 0 0 0 0 0 0 0 0 0 0 0 0 0 0 0 0 0 0 0 0 0 0
0 0 0 0 0 0 0 0 0 0 0 0 0 0 0 0 0 0 0 0 0 0 0 0 0 0 0 0 0 0 0 0 0 0 0 0 0 0 0 0 0 0 0
0 0 0 0 0 0 0 0 0 0 0 0 0 0 0 0 0 0 0 0 0 0 0 0 0 0 0 0 0 0 0 0 0 0 0 0 0 0 0 0 0 0 0
0 0 0 0 0 0 0 0 0 0 0 0 0 0 0 0 0 0 0 0 0 0 0 0 0 0 0 0 0 0 0 0 0 0 0 0 0 0 0 0 0 0 0
0 0 0 0 0 0 0 0 0 0 0 0 0 0 0 0 0 0 0 0 0 0 0 0 0 0 0 0 0 0 0 0 0 0 0 0 0 0 0 0 0 0 0
0 0 0 0 0 0 0 0 0 0 0 0 0 0 0 0 0 0 0 0 0 0 0 0 0 0 0 0 0 0 0 0 0 0 0 0 0 0 0 0 0 0 0
0 0 0 0 0 0 0 0 0 0 0 0 0 0 0 0 0 0 0 0 0 0 0 0 0 0 0 0 0 0 0 0 0 0 0 0 0 0 0 0 0 0 0
Wind_Speed
7 6 5 4 6 5 6 5 4 4 5 5 4 2 2 1 2 2 4 8 5 3 2 2 3 4 4 4 4 4 3 4 3 3 3 3 2 2 2 2 3 3 4
5 6 5 5 4 4 4 4 4 4 3 2 2 1 1 1 1 1 1 7 8 6 5 3 2 3 4 5 4 4 3 3 3 2 2 2 2 1 0 1 2 3 3
5 5 4 4 3 3 4 4 4 3 3 3 2 2 1 1 1 1 1 1 4 8 8 8 7 6 6 5 5 5 5 4 5 4 4 3 3 3 2 2 1 1 2
5 4 4 4 3 3 4 3 3 3 2 2 2 1 2 2 2 1 1 1 2 4 9 12 11 10 9 8 7 7 6 6 6 5 4 3 3 3 3 3 3 3 3
4 4 3 3 4 3 3 3 3 3 3 2 2 2 2 2 2 3 3 3 4 4 4 10 12 11 11 10 8 8 7 7 7 6 5 4 4 4 4 4 5 5 5
4 3 2 3 4 3 3 3 3 3 3 3 3 4 3 3 3 3 3 4 4 4 4 5 5 9 12 12 10 9 7 7 6 6 5 5 5 5 5 4 4 4 4
4 4 3 3 3 3 3 4 4 5 4 4 3 3 4 4 4 3 3 3 4 5 5 5 4 4 6 11 11 10 9 8 8 8 7 6 5 5 5 4 4 4 4
4 3 4 3 3 3 4 4 3 3 3 2 2 3 3 4 3 4 3 3 4 4 5 6 6 5 4 4 10 12 11 10 10 9 9 8 8 7 7 6 6 5 5
5 4 4 4 3 3 3 3 3 3 3 2 1 2 2 3 4 3 4 4 3 3 4 5 6 6 5 5 5 11 12 11 10 9 8 8 7 7 7 7 7 7 7
6 5 5 5 4 3 4 3 2 2 3 3 2 2 3 2 2 3 3 3 4 4 4 3 4 4 4 4 6 9 10 9 8 8 8 7 7 7 7 7 7 7 8
7 7 7 6 6 5 5 5 4 3 2 2 2 2 2 2 1 1 3 3 3 3 3 3 3 3 3 3 2 9 8 7 7 7 7 7 7 7 7 8 8 9 9
7 9 9 8 7 7 7 7 6 8 6 6 4 3 2 1 1 0 2 3 2 2 2 1 1 2 2 2 5 7 5 5 6 6 6 7 7 8 8 9 9 10 11
7 8 8 8 7 7 8 7 8 8 8 7 6 4 4 4 2 1 1 2 2 3 2 1 1 1 2 2 3 4 1 3 5 6 7 7 7 8 9 9 10 11 11
8 8 9 9 9 8 8 8 8 8 7 8 8 6 4 5 3 2 1 1 3 3 4 2 0 1 3 3 5 6 2 3 4 6 7 7 8 8 9 9 10 11 11
8 9 9 10 9 9 8 7 7 7 7 7 7 6 5 5 4 3 3 2 3 2 2 4 0 2 3 3 4 5 5 4 4 6 7 7 8 9 9 10 10 10 11
10 10 10 10 9 9 8 7 8 8 7 7 6 7 5 5 4 4 3 3 3 3 2 3 1 3 4 5 1 5 5 4 10 6 5 7 8 9 9 9 10 10 11
9 9 9 9 9 8 7 7 8 7 7 7 6 7 7 6 4 3 3 3 3 3 1 2 1 2 2 5 5 6 6 6 1 6 3 6 7 8 8 9 9 9 10
9 9 9 9 8 8 7 7 7 7 7 7 6 6 6 4 4 4 3 3 3 3 3 2 2 1 2 3 4 6 5 5 6 5 4 6 6 7 7 7 7 8 8
9 9 9 8 8 7 7 7 6 6 6 6 6 5 5 5 4 4 3 3 2 2 2 3 2 2 3 3 5 5 4 4 6 2 7 9 7 6 5 5 5 6 7
9 8 8 8 7 7 7 6 6 6 6 6 5 5 5 5 5 4 3 3 3 3 2 3 3 2 2 2 4 5 4 4 4 4 4 4 6 10 9 6 3 4 6
8 8 8 7 7 7 7 6 5 5 5 5 4 4 6 6 7 6 6 6 5 4 4 3 3 3 3 4 4 5 6 6 3 3 5 5 2 3 3 7 4 2 5
7 7 8 8 8 8 8 9 6 4 4 4 4 3 4 3 2 3 3 5 6 7 7 6 5 5 5 5 5 6 6 6 5 4 6 5 4 3 2 2 5 2 4
7 7 7 8 9 9 7 7 8 3 3 3 3 2 2 3 2 3 3 8 8 8 7 7 8 7 7 6 7 8 6 7 7 6 6 6 4 3 3 4 6 1 2
6 6 6 7 8 8 6 6 9 2 3 2 2 2 3 3 6 6 6 4 2 1 3 6 6 7 7 7 7 8 8 8 8 4 4 6 5 4 4 1 8 5 3
6 5 6 6 6 7 6 7 11 1 2 2 2 3 4 4 6 7 7 5 4 2 4 7 8 9 9 9 8 8 7 7 6 4 3 6 6 5 4 2 4 9 7
5 5 6 5 5 6 6 6 11 3 2 1 2 4 6 5 6 7 7 6 6 6 6 4 6 8 9 8 10 8 7 7 6 5 4 5 6 6 4 3 3 1 3
Wind_Direction
193 182 185 186 196 178 180 202 202 184 202 198 207 218 264 298 309 338 103 104 102 104 125 178 194 198 194 198 195 190 193 198 195 190 180 178 184 196 206 215 221 222 228
192 186 183 185 196 187 190 191 184 186 203 196 188 169 263 314 55 320 54 113 104 92 88 95 129 150 158 160 153 155 154 157 149 138 127 118 112 119 211 246 254 254 251
192 189 177 181 187 180 177 192 182 188 187 179 167 152 134 39 51 44 4 70 115 103 87 80 80 87 99 109 112 108 105 110 113 111 104 96 88 77 65 42 2 339 317
193 186 181 180 181 185 183 179 187 187 183 187 155 135 122 115 84 64 52 66 55 81 93 82 76 75 77 83 90 94 94 94 94 92 89 83 73 55 37 25 16 2 349
188 189 185 173 189 183 182 194 167 181 168 153 139 118 98 82 86 71 58 54 64 67 84 94 85 77 75 74 78 86 89 88 89 87 81 71 57 51 40 30 20 12 4
170 172 170 178 187 171 163 153 149 152 146 149 133 103 79 74 64 63 57 63 63 68 70 78 94 86 75 69 67 72 78 79 77 73 67 59 46 46 39 34 21 5 1
141 154 149 152 164 153 145 151 159 152 146 145 151 136 112 83 70 61 53 60 71 65 65 62 60 69 92 79 63 63 63 66 63 59 54 49 47 42 35 20 6 358 352
122 131 132 135 132 131 140 151 165 172 151 181 216 189 173 146 95 62 73 76 68 74 74 69 67 56 54 75 70 59 55 56 57 53 48 44 38 31 24 18 10 358 343
97 102 121 119 120 132 143 148 168 187 167 158 313 263 222 188 136 96 64 68 71 69 72 73 67 60 57 58 73 67 55 47 44 41 37 31 24 15 4 356 352 349 345
84 89 97 102 104 104 110 120 126 155 161 159 132 32 13 39 176 146 129 96 78 67 63 64 72 71 59 66 78 71 54 43 37 31 24 15 7 359 350 342 335 330 324
77 81 84 90 91 87 89 93 94 84 99 115 117 107 91 76 357 208 155 145 118 85 69 69 64 59 52 48 49 61 44 34 25 16 9 1 353 345 339 332 326 321 318
75 76 81 81 82 82 83 85 86 82 76 75 74 70 81 89 107 133 153 171 156 123 96 68 58 46 30 20 56 54 30 24 11 2 354 346 341 335 330 325 323 321 320
80 77 80 79 79 82 83 84 83 79 80 81 77 75 68 58 48 42 166 156 171 155 160 173 78 26 14 0 60 28 49 29 353 344 337 333 329 326 322 320 319 317 316
82 83 82 80 78 80 81 81 84 83 80 79 75 69 72 62 50 37 28 200 195 177 162 98 55 33 357 341 42 296 303 90 342 331 328 325 322 321 319 316 315 315 314
86 80 79 79 78 77 78 81 81 81 82 84 87 82 75 73 60 52 37 352 309 259 148 124 304 57 340 348 5 318 323 56 313 306 312 315 315 314 313 312 311 312 313
83 83 80 78 76 76 77 80 87 81 82 77 73 72 68 74 65 59 49 36 2 333 16 71 44 26 3 322 46 314 309 248 238 245 287 307 311 312 312 313 312 313 313
81 81 81 80 80 82 83 82 86 91 88 87 85 81 70 50 49 53 51 47 38 11 349 65 38 63 334 318 332 319 305 299 280 173 270 301 304 307 312 316 316 316 316
78 79 82 82 83 82 82 86 90 91 91 89 83 78 73 70 58 41 32 39 44 14 332 358 337 354 327 309 320 303 310 321 314 142 219 267 284 298 307 313 317 318 318
80 81 82 83 83 83 82 82 84 85 83 81 76 71 67 61 49 46 15 25 23 17 341 316 328 347 307 339 310 297 310 307 298 196 208 221 231 253 271 289 307 316 319
82 80 79 81 82 82 82 83 85 84 84 82 75 68 59 50 40 24 23 19 0 331 316 298 319 321 313 334 306 321 326 326 319 324 322 279 218 219 227 231 256 317 326
84 83 84 85 84 78 60 54 81 87 88 89 84 72 62 48 28 357 353 358 342 326 323 328 325 332 351 342 340 335 329 320 322 334 325 316 297 279 213 197 179 11 338
86 88 87 84 77 67 42 18 2 83 82 79 75 72 105 130 109 222 275 308 320 320 335 330 336 347 344 343 346 323 323 325 329 0 324 320 328 326 319 43 82 44 340
93 90 88 87 84 72 41 20 357 354 69 60 49 33 35 70 290 350 221 224 234 237 261 306 321 334 332 348 332 321 332 325 320 325 317 317 325 331 330 92 127 122 336
99 97 93 91 89 75 41 14 336 308 64 56 34 17 2 18 35 346 324 323 320 216 226 256 305 314 326 331 316 301 298 289 280 269 309 314 330 330 334 79 156 176 206
103 106 99 95 93 88 48 8 329 301 83 76 60 40 357 29 51 337 307 329 340 349 202 233 266 281 291 284 282 292 302 306 322 341 349 323 325 327 320 309 168 186 201
109 106 100 94 86 83 65 15 336 325 46 57 114 125 89 21 2 329 317 340 350 353 337 309 252 245 250 238 227 259 301 318 328 336 11 330 325 328 326 336 345 211 209